Location: Henham
(51.9333°N, 0.2500°E)
Time: 09:44:48
(UTC+00:00)

Ariane Rocket - Pass Details

Date: 23 October 2019
Orbit: 760 x 770 km, 98.8° (Epoch: 21 November)

Event Time Altitude Azimuth Distance (km) Brightness Sun altitude
Rises 18:02:42 0° 140° (SE) 3,235 5.9 -12.0°
Reaches altitude 10° 18:05:05 10° 134° (SE) 2,313 5.1 -12.4°
Maximum altitude 18:09:52 42° 65° (ENE) 1,091 3.4 -13.1°
Drops below altitude 10° 18:14:40 10° 355° (N) 2,327 5.5 -13.8°
Sets 18:17:05 0° 349° (N) 3,258 6.4 -14.2°
